Lapse_Rate
5.1 5.2 5.3 5.3 5.2 5.2 5.2 4.9 3.4 3.5 4.1 4.2 4.1 3.7 5.0 5.5 5.4 5.4 5.8 6.4 6.2 5.9 5.8 6.0 5.7 5.7 5.5 5.5 5.6 5.7 6.0 6.1 6.0 5.8 6.1 5.9 5.8 6.1
4.8 4.8 5.0 5.0 4.9 4.9 4.9 5.1 4.9 3.7 3.5 4.2 3.8 4.2 4.3 5.1 5.4 5.7 5.9 5.9 6.2 6.0 5.9 5.9 6.1 5.5 5.5 5.5 5.6 5.6 5.9 5.9 5.6 5.8 6.1 6.0 5.6 5.9
4.8 4.6 4.7 4.7 4.9 4.8 4.7 4.7 5.1 4.8 3.4 5.2 4.2 4.0 4.4 5.1 5.1 5.4 5.8 5.9 5.6 5.6 5.9 5.8 5.6 5.5 5.3 5.4 5.6 5.6 6.0 5.7 5.5 5.4 5.5 6.0 5.5 5.7
5.0 4.9 5.0 4.9 4.9 4.9 4.7 4.6 4.8 5.0 4.7 4.5 4.9 4.3 4.2 5.0 5.2 5.1 6.2 5.7 5.1 5.7 5.8 5.7 5.6 5.9 5.6 5.2 5.6 5.9 5.7 5.2 5.2 4.9 5.2 5.8 5.6 5.7
5.6 5.4 5.3 5.0 5.0 5.1 4.9 4.8 4.7 4.8 4.8 4.5 5.9 4.8 4.4 4.4 4.0 5.0 5.5 6.0 5.7 5.5 6.1 5.9 6.0 6.3 6.1 5.6 5.5 5.8 5.9 5.3 5.1 5.2 5.2 5.6 5.5 5.5
5.9 5.8 5.7 5.6 5.3 5.2 5.0 4.9 4.9 4.9 4.8 4.7 6.0 5.3 4.5 4.7 4.6 4.2 5.4 5.5 5.3 5.5 6.1 5.3 5.9 5.9 6.0 6.1 6.1 6.1 6.0 5.8 5.3 5.3 5.2 5.2 5.2 5.5
6.0 5.9 5.8 5.8 5.7 5.6 5.4 5.2 5.0 5.0 5.0 4.6 5.4 5.6 4.6 4.4 4.1 4.0 3.9 5.2 5.3 5.5 5.7 5.8 6.1 5.8 6.1 6.2 6.0 5.8 5.9 6.0 5.4 5.7 5.0 4.9 5.1 5.2
6.3 6.1 6.0 5.9 5.8 5.7 5.6 5.5 5.4 5.1 5.0 4.8 5.0 5.7 4.9 4.1 3.8 4.2 4.4 4.8 5.6 4.5 5.3 6.0 5.7 5.4 5.6 5.9 5.8 5.4 5.5 5.7 5.7 4.9 5.3 5.3 5.2 5.1
6.4 6.4 6.5 6.5 6.5 6.5 5.9 5.5 5.4 5.3 5.1 5.1 5.0 5.7 5.3 4.6 3.6 3.4 3.6 3.8 5.1 5.3 5.6 5.8 5.8 5.6 5.5 5.5 5.1 5.3 5.6 5.9 5.6 6.0 5.8 5.3 5.3 5.4
6.8 6.6 6.6 6.6 6.7 6.7 6.8 6.4 5.9 5.6 5.5 5.5 5.5 5.9 5.6 5.1 4.3 2.4 2.6 3.3 4.0 5.3 4.3 5.2 5.8 6.1 6.0 5.4 5.3 5.1 5.5 5.6 5.8 5.5 5.8 5.3 5.1 5.1
6.8 6.7 6.7 6.7 6.7 6.5 6.4 6.7 6.6 6.3 5.9 5.8 6.0 6.0 5.8 5.3 4.7 3.9 3.1 2.7 3.4 3.8 4.0 4.4 5.4 5.2 5.6 5.5 5.5 5.6 5.8 5.6 5.3 5.3 5.7 5.7 5.6 5.4
6.7 6.8 6.7 6.7 6.7 6.5 6.4 6.4 6.5 6.6 6.2 6.2 6.3 6.2 6.0 5.7 4.8 4.2 4.0 2.8 2.6 4.1 3.7 3.9 4.4 4.9 5.6 5.7 5.6 5.7 5.7 5.5 5.2 5.3 5.4 5.6 5.7 5.5
6.7 6.7 6.7 6.7 6.6 6.5 6.3 6.2 6.2 6.0 6.1 6.1 6.2 6.3 6.1 5.9 5.3 4.3 4.4 3.8 3.0 3.7 3.1 4.1 4.5 4.7 5.6 5.3 5.7 5.6 5.5 5.7 5.6 5.6 5.2 5.3 5.4 5.5
6.9 6.9 6.8 6.8 6.7 6.6 6.5 6.3 6.3 6.0 5.8 5.9 6.2 6.3 6.3 6.1 5.8 4.7 4.0 4.0 3.8 3.6 4.0 4.0 4.5 4.8 4.7 5.3 5.5 5.8 5.6 5.3 5.1 5.3 5.3 5.5 5.3 5.4
6.8 6.9 6.9 6.9 6.9 7.0 6.7 6.5 6.4 6.1 5.9 5.9 6.3 6.4 6.4 6.2 5.9 5.2 4.0 3.6 3.6 3.6 3.8 4.1 5.0 5.1 4.2 4.5 5.0 5.0 5.6 5.4 5.5 5.3 5.3 5.3 5.3 5.2
6.6 6.7 6.9 7.0 6.9 6.9 7.0 6.9 6.7 6.3 6.1 6.0 6.2 6.2 6.2 6.3 6.0 5.7 4.9 3.6 3.4 3.0 3.3 3.5 3.5 4.2 4.0 4.1 4.9 5.5 5.2 5.4 5.3 5.4 5.2 5.4 5.2 5.5
6.4 6.5 6.6 6.8 6.9 6.9 6.8 6.8 6.9 6.7 6.4 6.3 6.2 6.1 6.1 6.5 6.3 5.6 5.7 4.3 3.2 3.5 3.3 3.7 4.4 4.0 4.2 4.4 5.3 5.0 4.8 5.4 5.6 5.3 5.4 5.6 5.5 5.3
6.1 6.3 6.4 6.5 6.6 6.7 6.8 6.7 6.7 6.7 6.6 6.4 6.3 6.3 6.2 6.0 6.0 5.7 5.3 5.2 3.8 3.5 4.3 4.7 4.4 4.2 4.0 5.0 4.9 5.2 4.9 5.2 5.5 5.4 5.5 5.4 5.4 5.3
6.0 6.1 6.2 6.3 6.4 6.5 6.6 6.6 6.7 6.6 6.6 6.6 6.4 6.3 6.4 6.3 6.0 5.9 5.3 5.1 4.3 4.0 4.0 4.0 4.2 4.2 4.7 5.2 4.8 4.4 4.5 4.7 5.1 5.4 5.7 6.0 5.7 5.7
5.8 5.9 6.1 6.2 6.3 6.4 6.5 6.6 6.5 6.5 6.5 6.5 6.5 6.6 6.5 6.5 6.3 6.2 5.9 5.1 4.7 3.7 3.5 4.0 3.7 4.1 4.2 4.6 4.2 4.5 4.8 4.5 4.6 5.1 5.6 5.3 5.8 5.7
5.5 5.6 5.8 6.0 6.1 6.2 6.4 6.5 6.5 6.5 6.4 6.5 6.5 6.4 6.5 6.4 6.3 6.1 6.1 5.4 4.8 4.0 3.6 3.9 3.5 4.0 4.2 4.2 4.6 4.4 4.6 4.9 4.5 4.7 5.0 4.9 5.2 5.4
5.4 5.4 5.5 5.7 5.9 6.0 6.2 6.3 6.3 6.4 6.3 6.4 6.4 6.4 6.4 6.3 6.4 6.2 6.2 6.1 5.3 4.7 3.7 3.4 3.0 3.7 3.9 4.3 5.0 5.4 4.9 4.5 4.5 4.7 4.7 5.1 5.0 5.3
5.2 5.3 5.4 5.5 5.6 5.8 5.9 6.1 6.2 6.2 6.2 6.3 6.4 6.3 6.3 6.4 6.3 6.5 6.1 6.1 5.8 5.2 4.4 4.2 3.7 3.7 3.9 4.5 4.7 5.2 5.4 5.4 4.5 4.9 5.2 5.0 5.1 5.3
Wind_Speed
13 13 12 10 10 10 10 9 9 13 14 9 8 7 8 13 18 20 19 26 31 31 31 33 34 36 40 41 41 41 41 39 39 37 36 37 36 35
11 14 13 11 12 10 9 10 10 11 15 10 10 12 11 12 17 17 15 24 24 26 23 27 33 29 33 36 37 38 36 35 36 38 37 38 37 35
15 15 16 15 11 11 10 10 10 10 13 14 11 11 13 12 11 14 17 16 16 27 27 25 27 32 30 33 37 37 35 36 36 39 39 37 39 38
15 16 16 12 15 14 11 14 12 12 11 19 13 11 13 12 12 11 9 13 10 26 21 29 29 36 36 32 35 37 39 41 39 39 39 38 37 36
16 16 16 15 15 12 13 12 11 10 11 12 13 10 11 9 9 10 11 10 10 17 21 28 28 30 33 36 38 37 41 42 40 39 37 36 36 36
17 16 16 16 16 15 13 14 13 11 12 11 12 10 10 12 8 8 9 5 8 9 15 16 27 25 29 33 35 38 33 38 38 38 37 37 36 36
17 16 16 19 26 22 12 13 14 12 11 10 11 9 9 9 8 5 7 6 5 6 8 8 12 9 13 22 22 30 33 36 41 39 38 38 37 36
17 16 16 24 23 29 30 30 22 14 14 10 10 12 12 8 8 7 7 6 4 1 7 11 9 12 8 14 25 29 36 36 35 39 41 42 37 37
15 16 15 13 21 16 23 27 28 30 29 15 15 15 13 10 8 7 8 8 4 4 6 10 7 12 7 10 26 28 30 35 36 37 38 37 38 38
14 14 14 15 17 16 15 15 16 15 16 13 16 16 16 14 13 8 7 6 6 5 5 6 5 10 9 9 21 32 32 32 33 35 36 39 40 40
11 12 13 14 21 26 15 14 15 14 17 25 26 27 27 27 21 11 9 7 8 7 6 4 3 11 9 9 10 31 33 35 35 36 37 39 38 38
10 10 22 18 24 25 15 12 13 14 13 13 13 16 19 18 25 17 12 9 7 5 5 4 1 4 4 3 7 8 17 33 35 34 36 39 38 17
8 7 6 16 22 24 25 13 15 14 15 12 11 10 10 12 10 11 13 10 8 7 6 3 2 2 1 4 4 4 6 14 19 20 33 36 37 32
9 7 9 19 20 19 15 22 23 22 10 10 10 10 10 9 9 9 10 10 9 10 7 5 3 2 2 5 3 5 9 11 16 17 18 27 35 38
9 14 19 17 16 12 13 11 11 9 9 11 11 10 9 7 7 4 5 9 9 9 8 7 4 3 3 3 5 5 5 5 10 14 14 16 17 16
14 9 12 13 13 11 9 7 5 7 9 10 9 8 7 6 7 6 7 5 5 3 5 6 6 4 4 5 5 6 5 2 8 8 12 14 14 16
12 6 6 6 6 6 6 5 5 5 6 4 7 7 6 6 8 7 6 3 5 6 5 4 4 7 7 6 5 7 7 5 5 9 7 10 11 14
7 6 6 6 6 7 7 6 5 7 5 5 5 4 3 4 4 3 4 6 7 6 6 5 5 4 3 6 15 8 8 7 5 7 6 8 10 10
6 6 6 6 6 7 6 6 6 6 7 5 5 5 6 5 7 5 6 7 7 7 6 3 2 6 7 10 2 22 10 7 2 4 3 2 7 9
6 7 7 7 7 7 7 6 6 6 6 6 5 5 5 5 5 6 5 7 7 7 8 7 8 8 9 8 3 2 23 8 6 6 1 1 2 9
8 7 7 7 7 7 7 7 7 7 7 6 6 6 6 6 6 7 7 13 12 8 9 9 8 14 4 2 8 7 4 11 5 5 3 2 1 1
7 8 8 7 7 7 7 6 7 7 7 6 7 7 7 7 7 7 7 7 8 8 10 7 4 6 8 10 10 9 3 2 4 9 9 4 4 5
8 8 8 7 7 7 7 7 7 7 7 8 7 7 8 8 8 8 8 8 8 8 10 9 8 7 9 9 11 7 5 3 2 2 3 3 3 7
Wind_Direction
273 271 269 270 269 267 269 270 273 286 291 292 309 329 326 321 319 328 326 315 333 331 332 214 219 207 204 205 207 203 201 198 195 195 193 191 199 204
267 267 266 267 270 268 265 263 260 261 275 281 285 298 305 300 314 316 305 311 316 306 301 300 215 207 205 204 205 201 195 196 194 195 195 192 196 200
264 266 267 265 264 266 263 261 261 262 268 281 284 294 295 300 305 302 309 313 309 308 310 305 247 210 205 202 202 200 194 192 192 196 196 194 196 199
259 258 259 259 257 259 264 262 262 269 274 279 280 290 289 287 298 300 292 292 298 298 299 308 298 228 211 202 204 201 193 194 189 194 195 195 195 197
255 255 258 259 259 255 254 259 256 256 261 270 281 286 288 282 281 284 298 293 280 294 323 312 303 244 204 203 202 198 201 191 188 188 191 192 192 194
252 251 252 252 255 255 255 259 263 262 263 263 271 276 282 288 279 293 298 300 298 321 303 321 294 243 200 200 197 195 198 187 183 185 186 190 191 192
250 248 247 248 250 249 249 251 252 256 259 264 272 273 278 273 269 281 272 269 304 306 326 337 324 262 196 194 200 193 188 191 184 184 183 193 191 190
240 239 238 244 248 248 251 249 244 251 260 264 263 264 266 274 285 301 319 308 325 11 343 307 316 307 298 202 200 197 194 191 191 188 189 192 189 190
239 240 242 238 240 238 247 253 255 253 249 249 256 260 270 272 280 284 281 283 273 324 347 300 318 294 291 276 199 194 192 191 191 190 189 195 189 188
248 246 242 241 238 235 238 241 244 248 253 255 254 256 260 271 270 267 274 281 277 267 241 268 298 287 303 293 239 189 191 193 194 193 194 193 194 191
256 248 248 251 249 248 242 239 242 243 250 254 256 261 263 265 270 283 264 267 277 270 216 252 322 286 292 286 257 187 189 193 195 194 196 196 193 191
317 259 253 246 249 252 246 239 245 246 244 247 257 262 261 255 258 257 265 250 249 272 225 204 270 333 333 292 10 211 188 191 195 194 197 197 189 193
317 314 321 281 260 253 248 226 231 240 245 245 249 251 248 249 247 234 244 248 251 254 261 330 245 296 8 308 332 357 318 199 197 198 197 196 193 197
318 317 314 314 310 294 279 243 237 235 237 236 240 243 241 240 242 237 233 228 236 250 278 222 245 88 333 311 289 325 328 322 203 195 198 200 196 200
318 319 321 320 318 312 300 288 292 242 234 226 235 242 243 237 251 254 255 233 228 230 242 268 232 170 203 253 284 307 329 330 297 192 190 196 200 204
326 319 319 324 326 327 330 321 286 317 226 235 236 235 230 227 234 237 242 220 214 217 217 231 237 221 230 229 264 287 284 296 333 255 180 192 193 199
336 322 326 331 332 336 332 329 324 321 325 284 237 241 230 216 235 225 228 189 212 234 220 208 221 222 227 226 255 256 277 278 287 306 206 181 188 193
341 331 330 332 332 332 331 330 328 331 332 331 320 308 297 260 276 272 262 247 231 218 224 195 196 214 226 231 214 247 255 264 287 292 302 192 184 191
339 335 327 329 326 325 325 325 324 326 319 302 297 294 285 269 262 257 249 262 272 258 243 197 197 232 250 251 253 210 234 244 267 292 292 334 203 191
338 331 328 324 321 320 319 318 317 316 313 306 296 287 276 266 263 258 250 260 264 259 253 229 217 219 231 251 258 271 213 218 213 247 225 8 303 64
332 327 325 322 316 314 312 311 310 306 307 307 298 290 281 271 257 249 246 248 246 256 256 246 234 223 211 222 249 242 264 228 209 183 145 148 101 59
326 322 320 317 314 309 307 307 306 306 303 299 292 285 278 271 268 257 246 240 229 239 257 265 245 213 210 219 233 245 195 275 87 110 78 143 170 191
322 316 313 309 307 307 307 304 300 296 295 290 285 285 281 280 268 263 257 246 245 234 233 250 242 223 223 222 226 235 198 161 137 117 58 11 60 100